Terminal Aerodrome Forecast
Issued by NWS

Home | Current Version | Previous Version | Text Only | Print | Product List | Glossary On
Versions: 1 2 3 4 5 6 7 8 9 10 11 12 13 14 15 16 17 18 19 20 21 22 23 24 25 26 27 28 29
694
FTUS43 KDLH 100540
TAFHYR
TAF
KHYR 100540Z 1006/1106 35004KT P6SM VCSH BKN028
      TEMPO 1006/1010 4SM -SN OVC025
     FM101500 01004KT P6SM SCT035
     FM102200 35003KT P6SM SKC=

USA.gov is the U.S. government's official web portal to all federal, state and local government web resources and services.